• In Belarus
  • List of Countries
  • For 7 days
  • Water Temperature
  • Satellite Maps
  • Weather Map
  • Weather Widgets
  • user-avatar
    Login

    Hourly Weather Bubanza

    Today, 24 June, Sunday

    Time Temperature Precipitation Wind Pressure Humidity
    00:00 +20°C° 0 mm 1 mps 673 mmHg 88%
    01:00 +19°C° 0 mm 1 mps 673 mmHg 88%
    02:00 +19°C° 0 mm 1 mps 673 mmHg 89%
    03:00 +19°C° 0 mm 1 mps 673 mmHg 88%
    04:00 +19°C° 0 mm 1 mps 673 mmHg 88%
    05:00 +19°C° 0 mm 1 mps 673 mmHg 88%
    06:00 +20°C° 0 mm 1 mps 673 mmHg 81%
    07:00 +22°C° 0 mm 1 mps 674 mmHg 75%
    08:00 +22°C° 0 mm 0 mps 674 mmHg 68%
    09:00 +26°C° 0 mm 1 mps 675 mmHg 60%
    10:00 +28°C° 0 mm 1 mps 675 mmHg 53%
    11:00 +30°C° 0 mm 2 mps 675 mmHg 46%
    12:00 +29°C° 0 mm 2 mps 674 mmHg 47%
    13:00 +29°C° 0 mm 2 mps 673 mmHg 48%
    14:00 +29°C° 0 mm 2 mps 673 mmHg 50%
    15:00 +28°C° 0.1 mm 1 mps 673 mmHg 53%
    16:00 +28°C° 0.1 mm 1 mps 672 mmHg 57%
    17:00 +27°C° 0.1 mm 1 mps 672 mmHg 60%
    18:00 +25°C° 0.1 mm 1 mps 672 mmHg 66%
    19:00 +22°C° 0.1 mm 0 mps 672 mmHg 71%
    20:00 +20°C° 0.1 mm 0 mps 673 mmHg 76%
    21:00 +20°C° 0.1 mm 0 mps 673 mmHg 78%
    22:00 +20°C° 0.1 mm 0 mps 673 mmHg 79%
    23:00 +19°C° 0.1 mm 0 mps 673 mmHg 80%

    Tomorrow, 25 June, Monday

    Time Temperature Precipitation Wind Pressure Humidity
    00:00 +19°C° 0 mm 0 mps 673 mmHg 81%
    01:00 +18°C° 0 mm 0 mps 673 mmHg 83%
    02:00 +18°C° 0 mm 0 mps 672 mmHg 84%
    03:00 +20°C° 0 mm 1 mps 672 mmHg 84%
    04:00 +19°C° 0 mm 1 mps 672 mmHg 85%
    05:00 +19°C° 0 mm 1 mps 672 mmHg 85%
    06:00 +21°C° 0 mm 1 mps 673 mmHg 78%
    07:00 +21°C° 0 mm 0 mps 673 mmHg 70%
    08:00 +23°C° 0 mm 0 mps 674 mmHg 63%
    09:00 +26°C° 0 mm 1 mps 674 mmHg 58%
    10:00 +27°C° 0 mm 1 mps 674 mmHg 53%
    11:00 +29°C° 0 mm 2 mps 674 mmHg 49%
    12:00 +29°C° 0 mm 2 mps 674 mmHg 49%
    13:00 +29°C° 0 mm 2 mps 673 mmHg 50%
    14:00 +29°C° 0 mm 2 mps 672 mmHg 51%
    15:00 +28°C° 0.1 mm 1 mps 672 mmHg 54%
    16:00 +28°C° 0.1 mm 1 mps 672 mmHg 57%
    17:00 +27°C° 0.1 mm 1 mps 672 mmHg 60%
    18:00 +25°C° 0.1 mm 1 mps 672 mmHg 65%
    19:00 +22°C° 0.1 mm 0 mps 672 mmHg 71%
    20:00 +20°C° 0.1 mm 0 mps 673 mmHg 76%
    21:00 +20°C° 0.1 mm 0 mps 673 mmHg 77%
    22:00 +20°C° 0.1 mm 0 mps 673 mmHg 78%
    23:00 +21°C° 0.1 mm 1 mps 673 mmHg 79%

    Day after tomorrow, 26 June, Tuesday

    Time Temperature Precipitation Wind Pressure Humidity
    00:00 +21°C° 0 mm 1 mps 673 mmHg 80%
    01:00 +21°C° 0 mm 1 mps 673 mmHg 81%
    02:00 +20°C° 0 mm 1 mps 672 mmHg 82%
    03:00 +20°C° 0 mm 1 mps 672 mmHg 82%
    04:00 +20°C° 0 mm 1 mps 672 mmHg 82%
    05:00 +20°C° 0 mm 1 mps 672 mmHg 82%
    06:00 +21°C° 0 mm 1 mps 673 mmHg 76%
    07:00 +23°C° 0 mm 1 mps 673 mmHg 69%
    08:00 +24°C° 0 mm 1 mps 674 mmHg 63%
    09:00 +25°C° 0 mm 1 mps 674 mmHg 58%
    10:00 +27°C° 0 mm 2 mps 674 mmHg 54%
    11:00 +28°C° 0 mm 2 mps 674 mmHg 49%
    12:00 +28°C° 0 mm 2 mps 674 mmHg 49%
    13:00 +29°C° 0 mm 2 mps 673 mmHg 48%
    14:00 +29°C° 0 mm 2 mps 672 mmHg 48%
    15:00 +28°C° 0 mm 2 mps 672 mmHg 50%
    16:00 +28°C° 0 mm 1 mps 672 mmHg 53%
    17:00 +27°C° 0 mm 1 mps 671 mmHg 55%
    18:00 +25°C° 0 mm 1 mps 672 mmHg 62%
    19:00 +23°C° 0 mm 1 mps 672 mmHg 68%
    20:00 +19°C° 0 mm 0 mps 672 mmHg 74%
    21:00 +21°C° 0 mm 1 mps 672 mmHg 75%
    22:00 +21°C° 0 mm 1 mps 673 mmHg 75%
    23:00 +20°C° 0 mm 1 mps 673 mmHg 76%

    27 June, Wednesday

    Time Temperature Precipitation Wind Pressure Humidity
    00:00 +20°C° 0 mm 1 mps 673 mmHg 76%
    01:00 +20°C° 0 mm 1 mps 672 mmHg 77%
    02:00 +20°C° 0 mm 1 mps 672 mmHg 77%
    03:00 +19°C° 0 mm 1 mps 672 mmHg 77%
    04:00 +19°C° 0 mm 1 mps 672 mmHg 77%
    05:00 +19°C° 0 mm 1 mps 672 mmHg 77%
    06:00 +21°C° 0 mm 1 mps 673 mmHg 71%
    07:00 +22°C° 0 mm 1 mps 674 mmHg 65%
    08:00 +24°C° 0 mm 1 mps 674 mmHg 58%
    09:00 +26°C° 0 mm 1 mps 675 mmHg 54%
    10:00 +27°C° 0 mm 2 mps 675 mmHg 49%
    11:00 +29°C° 0 mm 2 mps 675 mmHg 44%
    12:00 +29°C° 0 mm 2 mps 674 mmHg 44%
    13:00 +29°C° 0 mm 2 mps 673 mmHg 44%
    14:00 +30°C° 0 mm 2 mps 672 mmHg 44%
    15:00 +29°C° 0 mm 1 mps 672 mmHg 47%
    16:00 +28°C° 0 mm 1 mps 672 mmHg 50%
    17:00 +27°C° 0 mm 1 mps 672 mmHg 53%
    18:00 +26°C° 0 mm 1 mps 672 mmHg 59%
    19:00 +24°C° 0 mm 1 mps 672 mmHg 65%
    20:00 +20°C° 0 mm 0 mps 672 mmHg 70%
    21:00 +19°C° 0 mm 0 mps 673 mmHg 72%
    22:00 +19°C° 0 mm 0 mps 673 mmHg 73%
    23:00 +21°C° 0 mm 1 mps 673 mmHg 74%

    28 June, Thursday

    Time Temperature Precipitation Wind Pressure Humidity
    00:00 +20°C° 0 mm 1 mps 672 mmHg 75%
    01:00 +20°C° 0 mm 1 mps 672 mmHg 76%
    02:00 +20°C° 0 mm 1 mps 672 mmHg 77%
    03:00 +20°C° 0 mm 1 mps 672 mmHg 77%
    04:00 +20°C° 0 mm 1 mps 672 mmHg 77%
    05:00 +20°C° 0 mm 1 mps 672 mmHg 77%
    06:00 +21°C° 0 mm 1 mps 673 mmHg 71%
    07:00 +23°C° 0 mm 1 mps 674 mmHg 64%
    08:00 +24°C° 0 mm 1 mps 675 mmHg 58%
    09:00 +26°C° 0 mm 1 mps 675 mmHg 53%
    10:00 +27°C° 0 mm 2 mps 675 mmHg 49%
    11:00 +29°C° 0 mm 2 mps 675 mmHg 44%
    12:00 +29°C° 0 mm 2 mps 674 mmHg 44%
    13:00 +29°C° 0 mm 2 mps 673 mmHg 44%
    14:00 +30°C° 0 mm 2 mps 672 mmHg 44%
    15:00 +29°C° 0 mm 2 mps 672 mmHg 47%
    16:00 +28°C° 0 mm 1 mps 672 mmHg 50%
    17:00 +28°C° 0 mm 1 mps 672 mmHg 53%
    18:00 +26°C° 0 mm 1 mps 672 mmHg 59%
    19:00 +24°C° 0 mm 1 mps 672 mmHg 65%
    20:00 +20°C° 0 mm 0 mps 673 mmHg 70%
    21:00 +20°C° 0 mm 0 mps 673 mmHg 71%
    22:00 +20°C° 0 mm 0 mps 673 mmHg 72%
    23:00 +22°C° 0 mm 1 mps 673 mmHg 73%

    29 June, Friday

    Time Temperature Precipitation Wind Pressure Humidity
    00:00 +21°C° 0 mm 1 mps 673 mmHg 74%
    01:00 +21°C° 0 mm 1 mps 672 mmHg 74%
    02:00 +21°C° 0 mm 1 mps 672 mmHg 75%
    03:00 +21°C° 0 mm 1 mps 672 mmHg 76%
    04:00 +21°C° 0 mm 1 mps 672 mmHg 77%
    05:00 +20°C° 0 mm 1 mps 672 mmHg 77%
    06:00 +20°C° 0 mm 0 mps 673 mmHg 72%
    07:00 +21°C° 0 mm 0 mps 673 mmHg 66%
    08:00 +22°C° 0 mm 0 mps 674 mmHg 60%
    09:00 +26°C° 0 mm 1 mps 674 mmHg 54%
    10:00 +28°C° 0 mm 2 mps 674 mmHg 48%
    11:00 +29°C° 0 mm 2 mps 674 mmHg 42%
    12:00 +30°C° 0 mm 2 mps 673 mmHg 41%
    13:00 +30°C° 0 mm 2 mps 672 mmHg 41%
    14:00 +30°C° 0 mm 2 mps 672 mmHg 40%
    15:00 +30°C° 0 mm 2 mps 671 mmHg 43%
    16:00 +29°C° 0 mm 2 mps 671 mmHg 46%
    17:00 +28°C° 0 mm 1 mps 671 mmHg 49%
    18:00 +26°C° 0 mm 1 mps 671 mmHg 56%
    19:00 +24°C° 0 mm 1 mps 671 mmHg 63%
    20:00 +20°C° 0 mm 0 mps 672 mmHg 70%
    21:00 +19°C° 0 mm 0 mps 672 mmHg 71%
    22:00 +19°C° 0 mm 0 mps 672 mmHg 73%
    23:00 +19°C° 0 mm 0 mps 672 mmHg 74%
    Show more